Location: Dana
(41.8364°N, 106.7042°W)
Time: 13:21:47
(UTC+00:00)

Injun/Solrad 3 - Pass Details

Date: 16 May 2026
Orbit: 867 x 989 km, 66.8° (Epoch: 7 June)

Event Time Altitude Azimuth Distance (km) Brightness Sun altitude
Rises 20:50:12 0° 166° (SSE) 3,493 11.1 58.0°
Reaches altitude 10° 20:53:17 10° 150° (SSE) 2,578 10.4 57.5°
Maximum altitude 20:57:32 20° 104° (ESE) 1,969 9.6 56.9°
Drops below altitude 10° 21:01:53 10° 59° (ENE) 2,651 10.1 56.2°
Sets 21:05:05 0° 44° (NE) 3,623 10.7 55.7°
